Location: Lewisville
(33.0462°N, 96.9942°W)
Time: 06:41:30
(UTC-05:00)

X-37B - Pass Details

Date: 02 September 2021
Orbit: 381 x 393 km, 45.0° (Epoch: 29 August)

Event Time Altitude Azimuth Distance (km) Brightness Sun altitude
Rises 20:40:00 0° 301° (WNW) 2,279 6.2 -10.8°
Reaches altitude 10° 20:42:06 10° 298° (WNW) 1,420 4.9 -11.2°
Maximum altitude 20:45:16 64° 216° (SW) 431 0.8 -11.9°
Enters shadow 20:47:26 18° 138° (SE) 1,020 2.2 -12.3°
